Regional Weather Roundup
Issued by NWS

Home | Current Version | Previous Version | Text Only | Print | Product List | Glossary Off
Versions: 1 2 3 4 5 6 7 8 9 10 11 12 13 14 15 16 17 18 19 20 21 22 23 24 25 26 27 28 29 30 31 32 33 34 35 36 37 38 39 40 41 42 43 44 45 46 47 48 49 50

000
ASUS44 KMEG 241200
RWRTN
TENNESSEE HOURLY STATE WEATHER ROUNDUP
NATIONAL WEATHER SERVICE MEMPHIS TN
600 AM CST TUE JAN 24 2017

TNZ002-004-019-021-049-052-054-088>092-241300-
WEST TENNESSEE

CITY           SKY/WX    TMP DP  RH WIND       PRES   REMARKS
MEMPHIS INTL   CLEAR     38  35  89 CALM      29.91R
NWS MEMPHIS      N/A     33 N/A N/A MISG        N/A
JACKSON        CLEAR     30  28  92 CALM      29.91R
DYERSBURG      CLEAR     32  30  93 CALM      29.91S
UNION CITY     MOCLDY   N/A N/A N/A CALM      29.91R
PARIS          CLOUDY    36  32  87 CALM      29.91R
$$

TNZ008-025-027-028-033-062-065-066-241300-
NORTH MIDDLE TENNESSEE

CITY           SKY/WX    TMP DP  RH WIND       PRES   REMARKS
NASHVILLE      CLOUDY    41  33  73 N8        29.91R
CLARKSVILLE    CLOUDY    40  32  73 NW9       29.91R WCI  34
SMYRNA         CLOUDY    41  34  76 NW9       29.92R
CROSSVILLE     CLOUDY    36  34  92 NW8       29.84R WCI  30
$$

TNZ061-075-076-078-094-096-097-241300-
SOUTH MIDDLE TENNESSEE

CITY           SKY/WX    TMP DP  RH WIND       PRES   REMARKS
TULLAHOMA      CLOUDY    37  34  87 N9        29.88R WCI  31
WINCHESTER     CLOUDY    37  34  87 N7        29.87R WCI  32
MCMINNVILLE    CLOUDY    37  36  93 N6          N/A  WCI  33
COLUMBIA       CLOUDY    39  39 100 CALM      29.88R
SHELBYVILLE    CLOUDY    41  36  81 NW6       29.90R
$$

TNZ017-018-042-046-047-241300-
NORTHEAST TENNESSEE

CITY           SKY/WX    TMP DP  RH WIND       PRES   REMARKS
TRI CITIES     LGT RAIN  43  40  89 W13G21    29.74R FOG
$$

TNZ012-013-036-069-073-074-241300-
CENTRAL EAST TENNESSEE

CITY           SKY/WX    TMP DP  RH WIND       PRES   REMARKS
KNOXVILLE      CLOUDY    42  38  85 W13       29.83R
OAK RIDGE      CLOUDY    43  38  82 VRB3      29.86R
GATLINBURG     CLOUDY    41  37  87 W10       29.83R
$$

TNZ083-085-099-241300-
SOUTHEAST TENNESSEE

CITY           SKY/WX    TMP DP  RH WIND       PRES   REMARKS
CHATTANOOGA    CLOUDY    43  35  73 NW12      29.86R
$$

SKY/WX REPORTED AS FAIR MEANS FEW OR NO CLOUDS BELOW
12 THOUSAND FEET.




USA.gov is the U.S. government's official web portal to all federal, state and local government web resources and services.